{"data":{"norad_id":64205,"intl_designator":"2025-117C","name":"STARLINK-34251","alt_names":[],"object_type":"PAYLOAD","status":"ACTIVE","operator":null,"country":"US","launch_date":"2025-05-31","launch_site_code":"AFWTR","launch_vehicle":null,"mission":null,"orbit_class":"UNKNOWN","rcs_meters":null,"size_class":null,"mass_kg":null,"dimensions":null,"purposes":["comms"],"wikipedia_slug":null,"has_3d_model":false,"image_url":null,"decayed_at":null,"tle_current":{"epoch":"2026-09-20T11:09:46.362816Z","epoch_age_seconds":143389,"freshness":"FRESH","line1":"1 64205U 25117C   26263.46511994  .00021845  00000+0  65557-3 0  9991","line2":"2 64205  53.1588 211.5629 0001377  81.4545 278.6614 15.34410747 74393","mean_motion":15.34410747,"eccentricity":0.0001377,"inclination_deg":53.1588,"raan_deg":211.5629,"arg_perigee_deg":81.4545,"mean_anomaly_deg":278.6614,"bstar":0.00065557,"rev_number":7439,"period_min":93.847100772424,"perigee_km":461.72931874207,"apogee_km":463.61327734736,"semimajor_km":6840.8082980447,"source":"CELESTRAK","updated_at":"2026-09-21T09:00:35.270229Z"}}}